Showing default

ANGELS, 44876

Orbit data source: Space-Track

ANGELS, 44876 is a payload satellite owned by CNES (FR) in SSO that was launched on Wed, 18 Dec 2019 UTC via a SOYUZ-ST-A launch vehicle from the French Guiana (FRGUI). Payload-class satellites include a variety of spacecraft equipped with specific instruments for various scientific and technological missions. These include communications satellites like Starlink; space stations such as the ISS; scientific satellites like the Hubble; Earth observation satellites from companies like Planet Labs, Umbra, and HawkEye 360; GPS; miniature CubeSats for education and research; and military/defense satellites.

Loading next visibility...
Identifier
44876, 2019-092D
Orbit
SSO
Country
Flag of FRFR
Related business
Manufacturer
Hemeria
Mission
Non-operational Civil Communications
Bus & Motor
CUBESAT 12U, Unknown motor
Mass
27 kg wet, 27 kg dry
Launch date (UTC)
2019-12-18 (6 years ago)
Launch vehicle
SOYUZ-ST-A
Launch site
French Guiana (FRGUI)
Object type
Payload
Rocket body
Debris
Shape & HBR
Box + 2 Pan, Unknown HBR
Radar Cross Section
0.126 m², Medium (>0.1 m² and < 1m²)

Expand to show TLE details & history
Last TLE update: 13 hours ago

TLE from 13 hours ago
0 ANGELS
1 44876U 19092D   25242.83119681  .00043672  00000-0  81914-3 0  9990
2 44876  97.4502  83.5610 0006494 176.4088 183.7211 15.48497442316852
Epoch: 2025-08-30T19:56Z
TLE epoch observation values (Epoch: 2025-08-30T19:56:55.404Z)
Latitude
0.00006°
Longitude
165.07029°
Altitude
428.656 km
Speed
7.652 km/s
True Right ascension
05h 34m 14s
True Declination
0° 00' 00"
Sunlit
Object was in daylight at epoch
Visualization orbit readout
Latitude
Unknown
Longitude
Unknown
Altitude
Unknown
Speed
Unknown
Apparent Right ascension
Unknown
Apparent Declination
Unknown
Sunlit
N/A
Visualization observer readout
Local Sidereal Time
00:10:30
Azimuth
Unknown
Elevation
Unknown
Doppler factor
Unknown
Orbital elements
Apogee altitude
422.464 km
Perigee altitude
413.637 km
Semi-major axis
6,796.188 km
Eccentricity
0.00065
Inclination
97.4502°
RAAN
83.561°
Arg. of periapsis
176.4088°
True anomaly
183.71627°
Mean anomaly
183.7211°
Eccentric anomaly
183.71869°
Mean motion
3.87387 °/min
Orbital period
92.93 mins
BSTAR
0.00081914
Loading maneuver chart data...
Computing Atmospheric mass density...
Loading historical data...
Loading historical data...
Loading historical data...
Loading historical data...
Loading historical data...
Loading historical data...
Loading historical data...

Documentation

Showing up to 5 results
|